Left ArrowRight Arrow

44.5394, -95.11694

Hourly Observations for June 21, 2024

Temp ( °F °C ) Dew Point ( °F °C ) Humidity (%) Winds ( mph kmh ) Pressure ( in mb ) Visibility ( mi km ) Precip ( " mm )
12:21 am 00:21 Cloudy with Mist and Fog 61 16.1 59 15 93 93 ENE 6 9 30.21 1023 6 10 0.01 0.13
12:53 am 00:53 Cloudy with Light Rain 61 16.1 59 15 93 93 ENE 6 9 30.22 1023 9 14 0.01 0.13
1:53 am 01:53 Cloudy with Light Rain 61 16.1 60 15.6 97 97 Calm 30.24 1024 6 10 0.01 0.13
2:47 am 02:47 Cloudy with Nearby Thunderstorms 61 16 59 15 94 94 NNE 5 7 30.20 1023 3 4 0.07 1.78
2:48 am 02:48 Cloudy with Nearby Thunderstorms 61 16.1 59 15 93 93 N 5 7 30.20 1023 3 4 0.08 2.03
3:08 am 03:08 Cloudy with Rain 61 16.1 60 15.6 97 97 NNE 3 6 30.20 1023 2 3 0.03 0.76
3:53 am 03:53 Cloudy with Nearby Thunderstorms 61 16.1 60 15.6 97 97 E 8 13 30.19 1022 3 5 0.14 3.56
4:05 am 04:05 Cloudy with Rain 61 16.1 60 15.6 97 97 E 7 11 30.18 1022 3 4 0.04 1.02
4:23 am 04:23 Cloudy with Rain 61 16.1 60 15.6 97 97 E 6 9 30.18 1022 3 4 0.10 2.54
4:35 am 04:35 Cloudy with Rain 62 16.7 61 16.1 96 96 SE 5 7 30.19 1022 3 4 0.13 3.30
4:53 am 04:53 Cloudy with Rain 62 16.7 61 16.1 96 96 VRB 6 9 30.19 1022 2 3 0.20 5.08
5:22 am 05:22 Cloudy with Light Rain 62 16.7 61 16.1 96 96 SE 10 17 30.16 1021 3 5 0.04 1.02
5:35 am 05:35 Cloudy with Light Rain 62 16.7 61 16.1 96 96 SE 10 17 30.15 1021 3 4 0.04 1.02
5:42 am 05:42 Cloudy with Light Rain 62 16.7 61 16.1 96 96 ESE 10 17 30.14 1020 3 5 0.04 1.02
5:53 am 05:53 Cloudy with Light Rain 62 16.7 61 16.1 96 96 E 14 22 30.11 1020 3 5 0.05 1.27
6:04 am 06:04 Cloudy with Mist and Fog 62 16.7 61 16.1 96 96 E 12 19 30.09 1019 3 5 0.01 0.13
6:20 am 06:20 Cloudy with Mist and Fog 63 17.2 62 16.7 97 97 E 5 7 30.07 1018 2 3 0.01 0.13
6:34 am 06:34 Cloudy with Mist and Fog 63 17.2 63 17.2 100 100 Calm 30.08 1019 5 8 0.01 0.13
6:38 am 06:38 Cloudy with Light Rain 63 17.2 63 17.2 100 100 Calm 30.10 1019 4 6 0.01 0.13
6:53 am 06:53 Cloudy with Light Rain 63 17.2 62 16.7 97 97 SSE 7 11 30.13 1020 3 5 0.01 0.13
7:03 am 07:03 Cloudy with Light Rain 63 17.2 62 16.7 97 97 S 6 9 30.12 1020 2 3 0.01 0.13
7:31 am 07:31 Cloudy with Light Rain 64 17.8 63 17.2 96 96 ESE 6 9 30.12 1020 3 5 0.01 0.13
7:53 am 07:53 Cloudy with Mist and Fog 64 17.8 64 17.8 100 100 NE 5 7 30.14 1021 3 4 0.01 0.13
8:11 am 08:11 Cloudy with Mist and Fog 64 17.8 63 17.2 96 96 N 6 9 30.13 1020 1 2 0.00 0.00
8:30 am 08:30 Cloudy with Mist and Fog 65 18.3 64 17.8 97 97 NE 5 7 30.13 1020 3 4 0.00 0.00
8:53 am 08:53 Cloudy with Mist and Fog 65 18.3 64 17.8 97 97 NE 3 6 30.15 1021 3 5 0.00 0.00
9:27 am 09:27 Cloudy with Mist and Fog 65 18.3 64 17.8 97 97 ENE 6 9 30.13 1020 3 4 0.00 0.00
9:53 am 09:53 Cloudy with Mist and Fog 65 18.3 64 17.8 97 97 NNE 6 9 30.14 1021 2 3 0.00 0.00
10:22 am 10:22 Cloudy with Mist and Fog 65 18.3 64 17.8 97 97 NE 8 13 30.11 1020 1 1 0.00 0.00
10:36 am 10:36 Cloudy with Mist and Fog 65 18.3 64 17.8 97 97 ENE 7 11 30.11 1020 1 2 0.00 0.00
10:45 am 10:45 Cloudy with Mist and Fog 66 18.9 65 18.3 96 96 ENE 8 13 30.12 1020 3 5 0.00 0.00
10:53 am 10:53 Cloudy with Mist and Fog 66 18.9 65 18.3 96 96 ENE 5 7 30.14 1021 4 6 0.00 0.00
11:33 am 11:33 Cloudy with Mist and Fog 67 19.4 65 18.3 93 93 ENE 6 9 30.12 1020 5 8 0.00 0.00
12:06 pm 12:06 Cloudy with Mist and Fog 67 19.4 65 18.3 93 93 E 8 13 30.11 1019 5 8 0.00 0.00
12:53 pm 12:53 Cloudy 68 20 65 18.3 90 90 ENE 6 9 30.12 1020 9 14 0.01 0.13
1:53 pm 13:53 Cloudy 69 20.6 66 18.9 90 90 NE 6 9 30.09 1019 9 14 0.00 0.00
2:14 pm 14:14 Cloudy 70 21.1 66 18.9 87 87 ENE 10 17 30.06 1018 9 14 0.00 0.00
2:53 pm 14:53 Cloudy 71 21.7 66 18.9 84 84 ENE 10 17 30.06 1018 10 16 0.00 0.00
3:53 pm 15:53 Cloudy 70 21.1 66 18.9 87 87 E 6 9 30.06 1018 9 14 0.01 0.13
4:10 pm 16:10 Cloudy with Light Rain 70 21.1 66 18.9 87 87 ENE 7 11 30.02 1017 8 13 0.01 0.13
4:53 pm 16:53 Mostly Cloudy 70 21.1 67 19.4 90 90 ENE 6 9 30.04 1017 10 16 0.01 0.13
5:53 pm 17:53 Cloudy with Light Rain 70 21.1 66 18.9 87 87 E 9 15 30.00 1016 10 16 0.01 0.13
6:18 pm 18:18 Cloudy with Light Rain 69 20.6 66 18.9 90 90 ENE 7 11 29.97 1015 8 13 0.01 0.13
6:51 pm 18:51 Cloudy with Light Rain 70 21 66 19 88 88 E 9 15 29.96 1015 6 10 0.01 0.13
6:53 pm 18:53 Cloudy with Light Rain 68 20 66 18.9 93 93 E 9 15 29.98 1015 6 10 0.01 0.13
7:09 pm 19:09 Cloudy with Heavy Rain 68 20 66 18.9 93 93 E 9 15 29.96 1015 2 3 0.04 1.02
7:22 pm 19:22 Cloudy with Rain 68 20 66 18.9 93 93 NE 7 11 29.94 1014 2 3 0.11 2.79
7:28 pm 19:28 Cloudy with Nearby Thunderstorms 68 20 66 18.9 93 93 ESE 6 9 29.96 1015 4 6 0.11 2.79
7:43 pm 19:43 Cloudy with Strong Thunderstorms 68 20 66 18.9 93 93 E 8 13 29.95 1014 2 2 0.24 6.10
7:53 pm 19:53 Cloudy with Thunderstorms 68 20 66 18.9 93 93 E 9 15 29.96 1015 3 4 0.26 6.60
7:59 pm 19:59 Cloudy with Nearby Thunderstorms 68 20 66 18.9 93 93 ESE 8 13 29.94 1014 3 5 0.02 0.51
8:27 pm 20:27 Cloudy with Rain 67 19.4 66 18.9 97 97 E 8 13 29.94 1014 4 6 0.06 1.52
8:53 pm 20:53 Cloudy with Light Rain 67 19.4 66 18.9 97 97 ENE 8 13 29.94 1014 3 5 0.11 2.79
9:17 pm 21:17 Cloudy with Light Rain 67 19.4 66 18.9 97 97 ENE 5 7 29.94 1014 4 6 0.04 1.02
9:34 pm 21:34 Cloudy with Light Rain 67 19.4 66 18.9 97 97 E 7 11 29.93 1013 10 16 0.04 1.02
9:53 pm 21:53 Mostly Cloudy with Light Rain 67 19.4 66 18.9 97 97 ENE 6 9 29.94 1014 10 16 0.04 1.02
10:23 pm 22:23 Mostly Cloudy with Light Rain 67 19.4 66 18.9 97 97 ENE 5 7 29.95 1014 8 13 0.01 0.13
10:53 pm 22:53 Mostly Cloudy with Light Rain 67 19.4 66 18.9 97 97 E 5 7 29.94 1014 7 11 0.01 0.13
11:12 pm 23:12 Cloudy with Light Rain 67 19.4 66 18.9 97 97 ENE 6 9 29.94 1014 6 10 0.01 0.13
11:39 pm 23:39 Partly Cloudy with Light Rain 67 19.4 66 18.9 97 97 E 7 11 29.92 1013 7 11 0.01 0.13
11:53 pm 23:53 Partly Cloudy with Light Rain 67 19.4 66 18.9 97 97 ENE 5 7 29.94 1014 7 11 0.01 0.13

Powered by Vaisala Xweather